TimePST,TemperatureF,Dew PointF,Humidity,Sea Level PressureIn,VisibilityMPH,Wind Direction,Wind SpeedMPH,Gust SpeedMPH,PrecipitationIn,Events,Conditions,WindDirDegrees,DateUTC
12:53 AM,30.0,25.0,82,30.07,10.0,Calm,Calm,-,N/A,,Clear,0,2013-03-08 08:53:00
1:53 AM,30.9,26.1,82,30.06,10.0,Calm,Calm,-,N/A,,Clear,0,2013-03-08 09:53:00
2:53 AM,27.0,23.0,85,30.06,10.0,Calm,Calm,-,N/A,,Clear,0,2013-03-08 10:53:00
3:53 AM,28.0,21.9,78,30.06,10.0,ESE,3.5,-,N/A,,Clear,110,2013-03-08 11:53:00
4:53 AM,27.0,23.0,85,30.06,10.0,Calm,Calm,-,N/A,,Clear,0,2013-03-08 12:53:00
5:53 AM,27.0,21.9,81,30.08,7.0,Calm,Calm,-,N/A,,Clear,0,2013-03-08 13:53:00
6:51 AM,28.4,23.0,80,30.05,1.0,Calm,Calm,-,N/A,,Haze,0,2013-03-08 14:51:00
7:06 AM,26.6,23.0,86,30.05,1.2,Calm,Calm,-,N/A,,Clear,0,2013-03-08 15:06:00
7:11 AM,26.6,21.2,80,30.05,3.0,Calm,Calm,-,N/A,,Haze,0,2013-03-08 15:11:00
7:31 AM,28.4,24.8,86,30.05,5.0,Calm,Calm,-,N/A,,Scattered Clouds,0,2013-03-08 15:31:00
7:53 AM,32.0,28.0,85,30.10,7.0,Calm,Calm,-,N/A,,Partly Cloudy,0,2013-03-08 15:53:00
8:53 AM,36.0,28.9,76,30.09,10.0,Calm,Calm,-,N/A,,Clear,0,2013-03-08 16:53:00
9:53 AM,41.0,30.0,65,30.10,10.0,Calm,Calm,-,N/A,,Clear,0,2013-03-08 17:53:00
10:53 AM,44.1,30.0,58,30.09,10.0,Calm,Calm,-,N/A,,Clear,0,2013-03-08 18:53:00
11:53 AM,48.9,32.0,52,30.08,10.0,Calm,Calm,-,N/A,,Clear,0,2013-03-08 19:53:00
12:53 PM,51.1,30.0,44,30.06,10.0,Calm,Calm,-,N/A,,Clear,0,2013-03-08 20:53:00
1:53 PM,53.1,28.9,40,30.04,10.0,West,6.9,-,N/A,,Clear,270,2013-03-08 21:53:00
2:53 PM,54.0,28.0,37,30.04,10.0,SW,3.5,-,N/A,,Clear,220,2013-03-08 22:53:00
3:53 PM,55.0,30.0,38,30.04,10.0,SW,5.8,-,N/A,,Clear,220,2013-03-08 23:53:00
4:53 PM,53.1,28.9,40,30.04,10.0,South,3.5,-,N/A,,Clear,190,2013-03-09 00:53:00
5:53 PM,46.9,28.9,50,30.07,10.0,WSW,5.8,-,N/A,,Clear,240,2013-03-09 01:53:00
6:53 PM,46.0,27.0,47,30.09,10.0,WNW,8.1,-,N/A,,Clear,300,2013-03-09 02:53:00
7:53 PM,39.9,28.9,65,30.12,10.0,NW,8.1,-,N/A,,Clear,320,2013-03-09 03:53:00
8:53 PM,37.0,28.0,70,30.14,10.0,NW,8.1,-,N/A,,Clear,310,2013-03-09 04:53:00
9:53 PM,35.1,28.0,76,30.15,10.0,NW,9.2,-,N/A,,Clear,320,2013-03-09 05:53:00
10:53 PM,35.1,27.0,72,30.16,10.0,West,8.1,-,N/A,,Clear,280,2013-03-09 06:53:00
11:53 PM,34.0,26.1,73,30.17,10.0,WSW,3.5,-,N/A,,Clear,240,2013-03-09 07:53:00